Arlington, WA
on Tuesday, November 20, 2012

Tuesday
Previous Day Next Day
Daily Summary
 ActualAverageRecord
Temperature
Mean Temperature °F °F  
Max Temperature 51°F 53°F 62°F (2002)
Min Temperature 44°F 26°F 19°F (2011)
Degree Days
Heating Degree Days 18    
Moisture
Dew Point 43°F   
Average Humidity 82    
Maximum Humidity 93    
Minimum Humidity 71    
Precipitation
Precipitation 0.05 in in in ()
Wind
Wind Speed 9 mph   
Max Wind Speed 22 mph   
Max Gust Speed 32 mph   
Visibility 10 miles   
Events     
Averages and records for this station are not official NWS values.
Key: T is trace of precipitation, MM is missing value
Source: NWS Daily Summary
Seasonal Weather Averages
Time(PST)TemperatureDew PointHumidity Pressure Visibility Wind DirectionWind SpeedGust SpeedPrecipitationEvents Conditions
12:15 AM 50.0°F 44.6°F 82% 29.69 in 10.0 miles SE 13.8 mph - N/A   Overcast
12:35 AM 50.0°F 44.6°F 82% 29.69 in 10.0 miles SE 15.0 mph - N/A   Overcast
12:55 AM 48.2°F 44.6°F 87% 29.69 in 10.0 miles SE 15.0 mph - N/A   Scattered Clouds
1:15 AM 48.2°F 42.8°F 82% 29.69 in 10.0 miles SE 10.4 mph - N/A   Mostly Cloudy
1:35 AM 48.2°F 42.8°F 82% 29.69 in 10.0 miles SE 13.8 mph - N/A   Overcast
1:55 AM 48.2°F 42.8°F 82% 29.70 in 10.0 miles SE 11.5 mph - N/A   Mostly Cloudy
2:15 AM 48.2°F 42.8°F 82% 29.70 in 10.0 miles SE 10.4 mph - N/A   Scattered Clouds
2:35 AM 48.2°F 44.6°F 87% 29.70 in 10.0 miles SE 6.9 mph - N/A   Mostly Cloudy
2:55 AM 48.2°F 42.8°F 82% 29.70 in 10.0 miles SE 8.1 mph - N/A   Mostly Cloudy
3:15 AM 48.2°F 44.6°F 87% 29.69 in 10.0 miles ESE 5.8 mph - N/A   Overcast
3:35 AM 48.2°F 42.8°F 82% 29.68 in 10.0 miles Calm Calm - N/A   Overcast
3:55 AM 50.0°F 44.6°F 82% 29.68 in 10.0 miles ESE 8.1 mph - N/A   Overcast
4:15 AM 48.2°F 44.6°F 87% 29.68 in 10.0 miles Calm Calm - N/A   Overcast
4:35 AM 50.0°F 42.8°F 76% 29.67 in 10.0 miles SSE 5.8 mph - N/A   Overcast
4:55 AM 48.2°F 42.8°F 82% 29.67 in 10.0 miles SSE 5.8 mph - N/A   Mostly Cloudy
5:15 AM 46.4°F 42.8°F 87% 29.67 in 10.0 miles SSE 4.6 mph - N/A   Mostly Cloudy
5:35 AM 48.2°F 42.8°F 82% 29.67 in 10.0 miles South 3.5 mph - N/A   Overcast
5:55 AM 48.2°F 42.8°F 82% 29.67 in 10.0 miles ESE 4.6 mph - N/A   Overcast
6:15 AM 48.2°F 42.8°F 82% 29.66 in 10.0 miles Calm Calm - N/A   Overcast
6:35 AM 46.4°F 42.8°F 87% 29.66 in 10.0 miles NNE 3.5 mph - N/A   Overcast
6:55 AM 46.4°F 42.8°F 87% 29.65 in 10.0 miles Calm Calm - N/A   Overcast
7:15 AM 46.4°F 42.8°F 87% 29.64 in 10.0 miles Calm Calm - N/A   Overcast
7:35 AM 44.6°F 42.8°F 93% 29.64 in 10.0 miles West 3.5 mph - N/A   Overcast
7:55 AM 44.6°F 42.8°F 93% 29.63 in 10.0 miles Calm Calm - N/A   Overcast
8:15 AM 46.4°F 42.8°F 87% 29.61 in 10.0 miles Calm Calm - N/A   Mostly Cloudy
8:35 AM 46.4°F 42.8°F 87% 29.60 in 10.0 miles Calm Calm - N/A   Partly Cloudy
8:55 AM 46.4°F 42.8°F 87% 29.57 in 10.0 miles North 4.6 mph - N/A   Clear
9:15 AM 48.2°F 44.6°F 87% 29.57 in 10.0 miles Calm Calm - N/A   Clear
9:35 AM 48.2°F 44.6°F 87% 29.56 in 10.0 miles Calm Calm - N/A   Clear
9:55 AM 48.2°F 44.6°F 87% 29.56 in 10.0 miles Calm Calm - N/A   Partly Cloudy
10:15 AM 48.2°F 44.6°F 87% 29.54 in 10.0 miles Calm Calm - N/A   Scattered Clouds
10:35 AM 48.2°F 44.6°F 87% 29.54 in 10.0 miles Calm Calm - N/A   Overcast
11:15 AM 48.2°F 44.6°F 87% 29.54 in 10.0 miles SSW 5.8 mph - N/A   Overcast
11:35 AM 48.2°F 42.8°F 82% 29.56 in 10.0 miles South 3.5 mph - 0.01 in   Overcast
11:55 AM 46.4°F 42.8°F 87% 29.57 in 10.0 miles South 6.9 mph - 0.04 in   Overcast
12:15 PM 48.2°F 44.6°F 87% 29.55 in 10.0 miles SSE 10.4 mph - N/A   Overcast
12:35 PM 48.2°F 44.6°F 87% 29.54 in 10.0 miles SE 9.2 mph - N/A   Overcast
12:55 PM 48.2°F 44.6°F 87% 29.55 in 10.0 miles South 9.2 mph - N/A   Overcast
1:15 PM 48.2°F 44.6°F 87% 29.55 in 10.0 miles SE 18.4 mph - N/A   Overcast
1:35 PM 48.2°F 44.6°F 87% 29.55 in 10.0 miles SE 15.0 mph 20.7 mph N/A   Overcast
1:55 PM 50.0°F 42.8°F 76% 29.57 in 10.0 miles South 18.4 mph 27.6 mph N/A   Overcast
2:15 PM 50.0°F 42.8°F 76% 29.59 in 8.0 miles South 21.9 mph 28.8 mph N/A   Overcast
2:35 PM 51.8°F 44.6°F 76% 29.58 in 10.0 miles SSE 19.6 mph 26.5 mph N/A   Overcast
2:55 PM 50.0°F 42.8°F 76% 29.59 in 10.0 miles SSE 18.4 mph 24.2 mph N/A   Mostly Cloudy
3:15 PM 50.0°F 42.8°F 76% 29.62 in 10.0 miles SSE 18.4 mph 24.2 mph N/A   Mostly Cloudy
3:35 PM 48.2°F 42.8°F 82% 29.63 in 10.0 miles SSE 20.7 mph 29.9 mph N/A   Mostly Cloudy
3:55 PM 48.2°F 41.0°F 76% 29.65 in 10.0 miles SSE 20.7 mph 27.6 mph N/A   Scattered Clouds
4:15 PM 48.2°F 41.0°F 76% 29.65 in 10.0 miles SSE 21.9 mph 32.2 mph N/A   Mostly Cloudy
4:35 PM 48.2°F 41.0°F 76% 29.66 in 10.0 miles SSE 20.7 mph 29.9 mph N/A   Mostly Cloudy
4:55 PM 48.2°F 42.8°F 82% 29.65 in 10.0 miles SE 17.3 mph 27.6 mph N/A   Mostly Cloudy
5:15 PM 48.2°F 42.8°F 82% 29.65 in 10.0 miles SE 17.3 mph 24.2 mph N/A   Overcast
5:35 PM 48.2°F 41.0°F 76% 29.65 in 10.0 miles SSE 17.3 mph 24.2 mph N/A   Mostly Cloudy
5:55 PM 48.2°F 39.2°F 71% 29.66 in 10.0 miles SSE 15.0 mph - N/A   Scattered Clouds
6:15 PM 48.2°F 41.0°F 76% 29.65 in 10.0 miles SE 18.4 mph - N/A   Mostly Cloudy
6:35 PM 48.2°F 41.0°F 76% 29.66 in 10.0 miles SE 11.5 mph - 0.01 in   Overcast
6:55 PM 46.4°F 41.0°F 81% 29.67 in 10.0 miles SSE 9.2 mph - 0.01 in   Overcast
7:15 PM 48.2°F 41.0°F 76% 29.66 in 10.0 miles SSE 12.7 mph - N/A   Overcast
7:35 PM 48.2°F 41.0°F 76% 29.66 in 10.0 miles SSE 12.7 mph - N/A   Overcast
7:55 PM 48.2°F 39.2°F 71% 29.67 in 10.0 miles South 15.0 mph 23.0 mph N/A   Overcast
8:15 PM 46.4°F 39.2°F 76% 29.67 in 10.0 miles South 19.6 mph 25.3 mph N/A   Mostly Cloudy
8:35 PM 46.4°F 39.2°F 76% 29.67 in 10.0 miles SSE 16.1 mph - N/A   Overcast
8:55 PM 46.4°F 41.0°F 81% 29.67 in 10.0 miles SSE 15.0 mph - N/A   Overcast
9:15 PM 46.4°F 41.0°F 81% 29.68 in 10.0 miles SE 10.4 mph - N/A   Overcast
9:35 PM 44.6°F 41.0°F 87% 29.67 in 10.0 miles SE 5.8 mph - N/A   Overcast
9:55 PM 44.6°F 41.0°F 87% 29.68 in 10.0 miles West 5.8 mph - N/A   Overcast
10:15 PM 44.6°F 41.0°F 87% 29.66 in 10.0 miles ESE 4.6 mph - N/A   Overcast
10:35 PM 46.4°F 41.0°F 81% 29.65 in 10.0 miles Calm Calm - N/A   Overcast
10:55 PM 44.6°F 41.0°F 87% 29.64 in 10.0 miles Calm Calm - N/A   Overcast
11:15 PM 44.6°F 39.2°F 81% 29.63 in 10.0 miles Calm Calm - N/A   Mostly Cloudy
11:35 PM 44.6°F 39.2°F 81% 29.62 in 10.0 miles North 3.5 mph - N/A   Overcast
11:55 PM 44.6°F 39.2°F 81% 29.60 in 10.0 miles Calm Calm - N/A   Overcast
Moon Phase
Nov. 20 Nov. 28 Dec. 06 Dec. 13 Dec. 20
Sunrise:07:23 AM (PST) Moon Rise:12:44 PM (PST)11/20
Sunset:04:24 PM (PST) Moon Set:No Moon Set/

Copyright © 2014 The Weather Underground, Inc.